Location: Houhaj�rvi
(61.2667°N, 23.0167°E)
Time: 19:50:14
(UTC+00:00)

Cosmos 1655 Rocket - Pass Details

Date: 13 December 2019
Orbit: 970 x 1007 km, 83.0° (Epoch: 17 January)

Event Time Altitude Azimuth Distance (km) Brightness Sun altitude
Rises 16:27:57 0° 166° (SSE) 3,694 7.0 -20.9°
Reaches altitude 10° 16:30:33 10° 161° (SSE) 2,744 6.3 -21.2°
Maximum altitude 16:36:30 47° 90° (E) 1,285 4.2 -21.9°
Enters shadow 16:38:35 35° 44° (NE) 1,538 4.6 -22.1°
